Showing default

TIGER-7, 59141

Orbit data source: Space-Track

TIGER-7, 59141 is a payload satellite owned by OQ Tech (RW) in SSO that was launched on Mon, 04 Mar 2024 UTC via an FALCON 9 launch vehicle from the Air Force Western Test Range (AFWTR). Payload-class satellites include a variety of spacecraft equipped with specific instruments for various scientific and technological missions. These include communications satellites like Starlink; space stations such as the ISS; scientific satellites like the Hubble; Earth observation satellites from companies like Planet Labs, Umbra, and HawkEye 360; GPS; miniature CubeSats for education and research; and military/defense satellites.

Loading next visibility...
Identifier
59141, 2024-043AV
Orbit
SSO
Country
Flag of RWRW / RWA
Related business
Manufacturer
NanoAvionics
Mission
Operational Commercial Communications
Bus & Motor
CUBESAT 6U, Unknown motor
Mass
~10 kg wet, ~10 kg dry
Launch date (UTC)
2024-03-04 (2 years ago)
Launch vehicle
FALCON 9
Launch site
Air Force Western Test Range (AFWTR)
Object type
Payload
Rocket body
Debris
Shape & HBR
Box + 2 Pan, 0.1 m
Radar Cross Section
0.080 m², Small (<0.1 m²)

Expand to show TLE details & history
Last TLE update: 11 hours ago

TLE from 11 hours ago
0 TIGER-7
1 59141U 24043AV  25289.12228397  .00013460  00000-0  32337-3 0  9998
2 59141  97.5212  65.9601 0006717 347.4774  12.6304 15.41443665 90286
Epoch: 2025-10-16T02:56Z
TLE epoch observation values (Epoch: 2025-10-16T02:56:05.335Z)
Latitude
-0.00003°
Longitude
-2.94866°
Altitude
440.493 km
Speed
7.65 km/s
True Right ascension
04h 23m 50s
True Declination
0° 00' 00"
Sunlit
Object was in full shadow at epoch
Visualization orbit readout
Latitude
Unknown
Longitude
Unknown
Altitude
Unknown
Speed
Unknown
Apparent Right ascension
Unknown
Apparent Declination
Unknown
Sunlit
N/A
Visualization observer readout
Local Sidereal Time
08:27:45
Azimuth
Unknown
Elevation
Unknown
Doppler factor
Unknown
Orbital elements
Apogee altitude
443.369 km
Perigee altitude
434.211 km
Semi-major axis
6,816.927 km
Eccentricity
0.00067
Inclination
97.5212°
RAAN
65.9601°
Arg. of periapsis
347.4774°
True anomaly
12.64724°
Mean anomaly
12.6304°
Eccentric anomaly
12.63882°
Mean motion
3.85621 °/min
Orbital period
93.36 mins
BSTAR
0.00032337
Loading maneuver chart data...
Computing Atmospheric mass density...
Loading historical data...
Loading historical data...
Loading historical data...
Loading historical data...
Loading historical data...
Loading historical data...
Loading historical data...

Documentation

Showing up to 5 results
|